Cedar Bluff, VA

4:13 AM EST on February 28, 2017 (GMT -0500)
Tazewell County

Weather History for KJFZ - May, 2013

Change the Weather History Date:

Monday, May 6, 2013

  Actual Average (KBLF) Record (KBLF)
Temperature  
Mean Temperature 54 °F -  
Max Temperature 58 °F 68 °F 84 °F (2014)
Min Temperature 49 °F 49 °F 32 °F (1968)
Degree Days  
Heating Degree Days 12    
Growing Degree Days 4 (Base 50)    
Moisture  
Dew Point 49 °F    
Average Humidity 86    
Maximum Humidity 97    
Minimum Humidity 74    
Precipitation  
Precipitation 0.36 in - - ()
Sea Level Pressure  
Sea Level Pressure 29.88 in    
Wind  
Wind Speed 11 mph (East)    
Max Wind Speed 24 mph    
Max Gust Speed 38 mph    
Visibility 9 miles    
Events Rain    
Averages and records for this station are not official NWS values.
T = Trace of Precipitation, MM = Missing Value Source: NWS Daily Summary

Daily Weather History Graph

Daily Weather History Graph

Search for Another Location

Airport or City:

Trip Planner

Search our weather history database for the weather conditions in past years. The results will help you decide how hot, cold, wet, or windy it might be!

Date:

Astronomy

May. 06, 2013 Rise Set
Actual Time 6:27 AM EDT 8:20 PM EDT
Civil Twilight 5:58 AM EDT 8:49 PM EDT
Nautical Twilight 5:24 AM EDT 9:23 PM EDT
Astronomical Twilight 4:47 AM EDT 10:00 PM EDT
Moon 4:23 AM EDT (5/6) 5:23 PM EDT (5/6)
Length of Visible Light 14h 50m
Length of Day
13h 53m
Waning Crescent, 11% of the Moon is Illuminated
May 6
Waning Crescent
May 9
New
May 18
First Quarter
May 25
Full
May 31
Last Quarter

Hourly Weather History & Observations

Time (EDT) Temp. Dew Point Humidity Pressure Visibility Wind Dir Wind Speed Gust Speed Precip Events Conditions
12:15 AM 52.0 °F 47.3 °F 84% 29.90 in 7.0 mi East 10.4 mph 27.6 mph N/A   Drizzle
12:35 AM 51.8 °F 47.5 °F 85% 29.89 in 7.0 mi ESE 12.7 mph 26.5 mph N/A   Drizzle
12:55 AM 52.0 °F 47.3 °F 84% 29.88 in 10.0 mi East 16.1 mph 28.8 mph N/A Rain Rain
1:15 AM 51.8 °F 47.1 °F 84% 29.88 in 10.0 mi East 15.0 mph 26.5 mph N/A Rain Rain
1:35 AM 52.3 °F 47.3 °F 83% 29.88 in 10.0 mi East 16.1 mph 27.6 mph N/A   Drizzle
1:55 AM 52.3 °F 47.3 °F 83% 29.87 in 7.0 mi East 16.1 mph 29.9 mph N/A Rain Rain
2:15 AM 51.8 °F 47.5 °F 85% 29.86 in 10.0 mi East 24.2 mph 34.5 mph N/A Rain Rain
2:35 AM 52.5 °F 46.9 °F 81% 29.84 in 10.0 mi East 13.8 mph 29.9 mph N/A Rain Light Rain
2:55 AM 53.1 °F 47.1 °F 80% 29.84 in 10.0 mi East 16.1 mph 38.0 mph 0.01 in   Overcast
3:15 AM 53.2 °F 47.3 °F 80% 29.84 in 10.0 mi East 10.4 mph 25.3 mph N/A   Overcast
3:35 AM 53.1 °F 47.3 °F 81% 29.84 in 10.0 mi East 11.5 mph 23.0 mph N/A   Overcast
3:55 AM 52.7 °F 47.3 °F 82% 29.84 in 10.0 mi ESE 6.9 mph 26.5 mph N/A   Drizzle
4:15 AM 51.6 °F 48.0 °F 87% 29.84 in 5.0 mi East 9.2 mph 32.2 mph N/A   Heavy Drizzle
4:35 AM 51.4 °F 48.0 °F 88% 29.84 in 10.0 mi ESE 12.7 mph 20.7 mph 0.01 in Rain Light Rain
4:55 AM 51.4 °F 48.0 °F 88% 29.84 in 10.0 mi East 10.4 mph 28.8 mph 0.01 in   Drizzle
5:15 AM 51.1 °F 48.2 °F 90% 29.85 in 7.0 mi ESE 11.5 mph 19.6 mph N/A Rain Heavy Rain
5:35 AM 50.9 °F 48.4 °F 91% 29.84 in 7.0 mi East 8.1 mph 20.7 mph 0.01 in Rain Light Rain
5:55 AM 50.7 °F 48.6 °F 92% 29.84 in 5.0 mi ESE 18.4 mph 29.9 mph 0.02 in Rain Rain
6:15 AM 51.3 °F 47.8 °F 88% 29.83 in 10.0 mi East 9.2 mph 26.5 mph N/A   Drizzle
6:35 AM 51.8 °F 47.5 °F 85% 29.84 in 10.0 mi ESE 8.1 mph 27.6 mph N/A   Overcast
6:55 AM 52.2 °F 47.5 °F 84% 29.85 in 10.0 mi ESE 17.3 mph 24.2 mph N/A   Overcast
7:15 AM 52.2 °F 47.5 °F 84% 29.85 in 10.0 mi East 16.1 mph 24.2 mph 0.01 in Rain Rain
7:35 AM 50.9 °F 48.2 °F 90% 29.85 in 4.0 mi ESE 10.4 mph 24.2 mph 0.09 in Rain Heavy Rain
7:55 AM 51.4 °F 48.2 °F 89% 29.86 in 10.0 mi ESE 9.2 mph 23.0 mph 0.10 in   Overcast
8:15 AM 51.1 °F 48.4 °F 90% 29.87 in 10.0 mi ESE 11.5 mph 21.9 mph N/A Rain Light Rain
8:35 AM 51.1 °F 48.4 °F 90% 29.87 in 5.0 mi SE 17.3 mph 24.2 mph 0.02 in Rain Rain
8:55 AM 50.9 °F 48.7 °F 92% 29.86 in 7.0 mi ESE 9.2 mph 17.3 mph 0.05 in Rain Light Rain
9:15 AM 51.3 °F 48.9 °F 92% 29.87 in 10.0 mi ESE 10.4 mph 19.6 mph 0.02 in Rain Rain
9:35 AM 51.4 °F 49.1 °F 92% 29.87 in 5.0 mi ESE 12.7 mph 28.8 mph 0.07 in Rain Heavy Rain
9:55 AM 51.8 °F 48.9 °F 90% 29.88 in 4.0 mi ESE 13.8 mph 35.7 mph 0.11 in Rain Rain
10:15 AM 52.0 °F 49.8 °F 92% 29.88 in 7.0 mi ESE 8.1 mph 20.7 mph 0.02 in Rain Light Rain
10:35 AM 51.8 °F 50.5 °F 95% 29.89 in 2.0 mi SE 8.1 mph 16.1 mph 0.03 in Rain Heavy Rain
10:55 AM 51.8 °F 50.9 °F 97% 29.90 in 3.0 mi SE 9.2 mph - 0.04 in Rain Heavy Rain
11:15 AM 52.2 °F 50.9 °F 95% 29.91 in 4.0 mi SE 6.9 mph - 0.01 in   Heavy Drizzle
11:35 AM 52.9 °F 51.3 °F 94% 29.91 in 4.0 mi East 11.5 mph 17.3 mph 0.02 in Rain Light Rain
11:55 AM 54.3 °F 52.3 °F 93% 29.91 in 10.0 mi East 6.9 mph - 0.02 in   Light Drizzle
12:15 PM 54.5 °F 50.9 °F 88% 29.91 in 10.0 mi SE 10.4 mph 18.4 mph N/A   Overcast
12:35 PM 55.4 °F 51.6 °F 87% 29.90 in 10.0 mi East 5.8 mph - N/A   Overcast
1:15 PM 54.7 °F 51.6 °F 89% 29.90 in 10.0 mi ESE 8.1 mph - N/A Rain Light Rain
1:35 PM 56.7 °F 52.2 °F 85% 29.89 in 10.0 mi ENE 10.4 mph - N/A   Overcast
1:55 PM 57.7 °F 51.1 °F 78% 29.89 in 10.0 mi ESE 5.8 mph - N/A   Overcast
2:15 PM 57.4 °F 50.5 °F 78% 29.89 in 10.0 mi ESE 5.8 mph - N/A   Overcast
2:35 PM 57.6 °F 50.5 °F 77% 29.89 in 10.0 mi ESE 6.9 mph - N/A   Overcast
3:15 PM 57.4 °F 50.9 °F 79% 29.89 in 10.0 mi East 4.6 mph - N/A   Overcast
3:35 PM 57.2 °F 51.6 °F 82% 29.89 in 10.0 mi ENE 5.8 mph - N/A   Overcast
3:55 PM 56.8 °F 52.0 °F 84% 29.88 in 10.0 mi ENE 6.9 mph - N/A Rain Light Rain
4:15 PM 57.9 °F 51.4 °F 79% 29.87 in 10.0 mi ENE 16.1 mph - N/A   Mostly Cloudy
4:35 PM 58.8 °F 50.9 °F 75% 29.87 in 10.0 mi East 9.2 mph - N/A   Mostly Cloudy
4:55 PM 57.4 °F 51.3 °F 80% 29.86 in 10.0 mi ENE 15.0 mph 20.7 mph N/A   Overcast
5:15 PM 55.9 °F 50.7 °F 83% 29.86 in 10.0 mi East 8.1 mph 21.9 mph N/A Rain Rain
5:35 PM 54.7 °F 46.6 °F 74% 29.86 in 10.0 mi ENE 8.1 mph - N/A Rain Light Rain
5:55 PM 53.4 °F 47.8 °F 81% 29.86 in 10.0 mi East 8.1 mph - N/A   Overcast
6:15 PM 53.8 °F 50.2 °F 88% 29.86 in 10.0 mi East 8.1 mph - N/A   Overcast
6:35 PM 54.5 °F 50.0 °F 85% 29.87 in 10.0 mi East 6.9 mph - N/A   Overcast
7:15 PM 53.2 °F 48.2 °F 83% 29.84 in 10.0 mi NE 5.8 mph - N/A   Overcast
7:35 PM 53.1 °F 46.8 °F 79% 29.87 in 10.0 mi NE 8.1 mph - N/A   Overcast
7:55 PM 51.6 °F 46.4 °F 82% 29.87 in 10.0 mi NE 8.1 mph - N/A   Scattered Clouds
8:15 PM 50.9 °F 46.8 °F 86% 29.87 in 10.0 mi ENE 4.6 mph - N/A   Scattered Clouds
8:35 PM 50.9 °F 47.1 °F 87% 29.88 in 10.0 mi Calm Calm - N/A   Mostly Cloudy
9:15 PM 51.4 °F 48.0 °F 88% 29.89 in 10.0 mi ENE 5.8 mph - N/A   Clear
9:35 PM 51.3 °F 47.7 °F 87% 29.90 in 10.0 mi East 6.9 mph - N/A   Scattered Clouds
9:55 PM 51.8 °F 46.9 °F 83% 29.91 in 10.0 mi ESE 9.2 mph - N/A   Scattered Clouds
10:15 PM 52.9 °F 46.4 °F 79% 29.92 in 10.0 mi East 5.8 mph - N/A   Mostly Cloudy
10:35 PM 51.3 °F 46.9 °F 85% 29.93 in 10.0 mi East 3.5 mph - N/A   Overcast
10:55 PM 50.9 °F 46.8 °F 86% 29.93 in 10.0 mi North 3.5 mph - N/A   Scattered Clouds
11:15 PM 49.3 °F 47.5 °F 94% 29.93 in 10.0 mi ENE 4.6 mph - N/A   Scattered Clouds
11:35 PM 49.5 °F 47.3 °F 92% 29.93 in 10.0 mi ENE 4.6 mph - N/A   Scattered Clouds
11:55 PM 51.1 °F 48.4 °F 90% 29.93 in 10.0 mi East 4.6 mph - N/A   Scattered Clouds